Tracking 33877 objects as of 19-Apr-2026
HD Live streaming from Space Station
objects crossing your sky now

STARLINK-1402

Track STARLINK-1402 now!
10-day predictions
STARLINK-1402 is classified as:


NORAD ID: 45685
Int'l Code: 2020-035AE
Perigee: 415.2 km
Apogee: 425.3 km
Inclination: 53.0 °
Period: 92.8 minutes
Semi major axis: 6791 km
RCS: Unknown
Launch date: June 4, 2020
Source: United States (US)
Launch site: AIR FORCE EASTERN TEST RANGE (AFETR)
Your satellite tracking list
Your tracking list is empty




NASA's NSSDC Master Catalog

Two Line Element Set (TLE):
1 45685U 20035AE  26108.55174914  .00113688  00000-0  18872-2 0  9996
2 45685  53.0449 192.6454 0007437 358.7638   1.3351 15.51239802325523
Source of the keplerian elements: AFSPC